{"data":{"norad_id":58124,"intl_designator":"2023-162G","name":"STARLINK-30754","alt_names":[],"object_type":"PAYLOAD","status":"ACTIVE","operator":null,"country":"US","launch_date":"2023-10-22","launch_site_code":"AFETR","launch_vehicle":null,"mission":null,"orbit_class":"UNKNOWN","rcs_meters":null,"size_class":null,"mass_kg":null,"dimensions":null,"purposes":["comms"],"wikipedia_slug":null,"has_3d_model":false,"image_url":null,"decayed_at":null,"tle_current":{"epoch":"2026-09-20T07:37:30.957024Z","epoch_age_seconds":156176,"freshness":"FRESH","line1":"1 58124U 23162G   26263.31771941  .00001233  00000+0  54344-4 0  9998","line2":"2 58124  43.0052 113.2593 0001420 266.0007  94.0682 15.27578717156289","mean_motion":15.27578717,"eccentricity":0.000142,"inclination_deg":43.0052,"raan_deg":113.2593,"arg_perigee_deg":266.0007,"mean_anomaly_deg":94.0682,"bstar":5.4344e-5,"rev_number":15628,"period_min":94.266827887469,"perigee_km":482.07864883473,"apogee_km":484.02722677707,"semimajor_km":6861.1899378059,"source":"CELESTRAK","updated_at":"2026-09-21T09:00:33.791724Z"}}}